{"data":{"norad_id":64501,"epoch":"2026-05-25T00:42:31.372128Z","epoch_age_seconds":72345,"freshness":"FRESH","line1":"1 64501U 25134B   26145.02952977 -.00000521  00000+0 -39268-4 0  9991","line2":"2 64501  51.8981 265.6218 0000932 160.1523 199.9476 14.79943658 51234","mean_motion":14.79943658,"eccentricity":9.32e-5,"inclination_deg":51.8981,"raan_deg":265.6218,"arg_perigee_deg":160.1523,"mean_anomaly_deg":199.9476,"bstar":-3.9268e-5,"rev_number":5123,"period_min":97.301001441232,"perigee_km":628.84887275859,"apogee_km":630.15509666534,"semimajor_km":7007.638984712,"source":"CELESTRAK","updated_at":"2026-05-25T13:38:04.551923Z"}}